Time,TemperatureF,DewpointF,PressureIn,WindDirection,WindDirectionDegrees,WindSpeedMPH,WindSpeedGustMPH,Humidity,HourlyPrecipIn,Conditions,Clouds,dailyrainin,SoftwareType,DateUTC
2015-08-01 00:00:00,65.9,45.1,29.98,WSW,254,0.0,0.0,47,0.00,,,0.00,Wunderground v.1.15,2015-08-01 06:00:00,
2015-08-01 00:06:00,65.8,45.0,29.98,WSW,254,0.0,0.0,47,0.00,,,0.00,Wunderground v.1.15,2015-08-01 06:06:00,
2015-08-01 00:12:00,65.6,43.7,29.98,WSW,254,0.0,0.0,45,0.00,,,0.00,Wunderground v.1.15,2015-08-01 06:12:00,
2015-08-01 00:18:00,65.0,43.7,29.98,WSW,254,0.0,0.0,46,0.00,,,0.00,Wunderground v.1.15,2015-08-01 06:18:00,
2015-08-01 00:24:00,64.4,43.7,29.98,NNE,15,0.0,0.0,47,0.00,,,0.00,Wunderground v.1.15,2015-08-01 06:24:00,
2015-08-01 00:29:00,64.7,44.0,29.98,NE,40,1.0,2.0,47,0.00,,,0.00,Wunderground v.1.15,2015-08-01 06:29:00,
2015-08-01 00:35:00,65.5,44.2,29.98,NE,37,3.0,7.0,46,0.00,,,0.00,Wunderground v.1.15,2015-08-01 06:35:00,
2015-08-01 00:41:00,65.4,44.1,29.98,North,11,4.0,4.0,46,0.00,,,0.00,Wunderground v.1.15,2015-08-01 06:41:00,
2015-08-01 00:47:00,65.7,43.8,29.98,NNE,24,3.0,4.0,45,0.00,,,0.00,Wunderground v.1.15,2015-08-01 06:47:00,
2015-08-01 00:53:00,66.5,43.9,29.98,NNE,22,3.0,5.0,44,0.00,,,0.00,Wunderground v.1.15,2015-08-01 06:53:00,
2015-08-01 00:58:00,66.6,43.4,29.98,North,9,4.0,5.0,43,0.00,,,0.00,Wunderground v.1.15,2015-08-01 06:58:00,
2015-08-01 01:04:00,66.5,43.3,29.98,North,5,3.0,4.0,43,0.00,,,0.00,Wunderground v.1.15,2015-08-01 07:04:00,
2015-08-01 01:09:00,66.4,43.8,29.98,North,5,3.0,3.0,44,0.00,,,0.00,Wunderground v.1.15,2015-08-01 07:09:00,
2015-08-01 01:15:00,66.2,43.6,29.98,North,5,2.0,3.0,44,0.00,,,0.00,Wunderground v.1.15,2015-08-01 07:15:00,
2015-08-01 01:21:00,66.0,43.5,29.98,North,5,2.0,2.0,44,0.00,,,0.00,Wunderground v.1.15,2015-08-01 07:21:00,
2015-08-01 01:27:00,65.6,43.1,29.98,NNE,22,2.0,2.0,44,0.00,,,0.00,Wunderground v.1.15,2015-08-01 07:27:00,
2015-08-01 01:33:00,65.2,43.3,29.98,North,9,2.0,4.0,45,0.00,,,0.00,Wunderground v.1.15,2015-08-01 07:33:00,
2015-08-01 01:38:00,65.0,43.1,29.98,NNE,26,3.0,7.0,45,0.00,,,0.00,Wunderground v.1.15,2015-08-01 07:38:00,
2015-08-01 01:44:00,65.1,43.2,29.98,NE,42,3.0,5.0,45,0.00,,,0.00,Wunderground v.1.15,2015-08-01 07:44:00,
2015-08-01 01:50:00,65.6,43.7,29.98,NE,35,3.0,3.0,45,0.00,,,0.00,Wunderground v.1.15,2015-08-01 07:50:00,
2015-08-01 01:56:00,65.9,43.4,29.98,NNW,340,2.0,3.0,44,0.00,,,0.00,Wunderground v.1.15,2015-08-01 07:56:00,
2015-08-01 02:02:00,66.0,43.5,29.98,NNE,28,1.0,3.0,44,0.00,,,0.00,Wunderground v.1.15,2015-08-01 08:02:00,
2015-08-01 02:08:00,66.4,43.2,29.98,NE,34,2.0,3.0,43,0.00,,,0.00,Wunderground v.1.15,2015-08-01 08:08:00,
2015-08-01 02:14:00,66.6,43.4,29.98,North,5,2.0,2.0,43,0.00,,,0.00,Wunderground v.1.15,2015-08-01 08:14:00,
2015-08-01 02:19:00,66.5,43.3,29.98,North,355,1.0,2.0,43,0.00,,,0.00,Wunderground v.1.15,2015-08-01 08:19:00,
2015-08-01 02:25:00,66.3,43.1,29.98,NE,41,1.0,2.0,43,0.00,,,0.00,Wunderground v.1.15,2015-08-01 08:25:00,
2015-08-01 02:31:00,66.1,42.9,29.98,North,9,2.0,2.0,43,0.00,,,0.00,Wunderground v.1.15,2015-08-01 08:31:00,
2015-08-01 02:37:00,66.0,42.9,29.98,NW,316,2.0,4.0,43,0.00,,,0.00,Wunderground v.1.15,2015-08-01 08:37:00,
2015-08-01 02:43:00,65.9,42.8,29.98,NNW,348,2.0,7.0,43,0.00,,,0.00,Wunderground v.1.15,2015-08-01 08:43:00,
2015-08-01 02:49:00,65.8,43.3,29.98,NW,321,2.0,7.0,44,0.00,,,0.00,Wunderground v.1.15,2015-08-01 08:49:00,
2015-08-01 02:54:00,65.7,43.2,29.98,NNW,333,2.0,4.0,44,0.00,,,0.00,Wunderground v.1.15,2015-08-01 08:54:00,
2015-08-01 03:00:00,65.6,43.1,29.98,North,11,2.0,3.0,44,0.00,,,0.00,Wunderground v.1.15,2015-08-01 09:00:00,
2015-08-01 03:05:00,65.6,43.1,29.98,North,5,2.0,3.0,44,0.00,,,0.00,Wunderground v.1.15,2015-08-01 09:05:00,
2015-08-01 03:11:00,65.7,43.2,29.98,NNW,334,2.0,3.0,44,0.00,,,0.00,Wunderground v.1.15,2015-08-01 09:11:00,
2015-08-01 03:16:00,65.6,43.1,29.98,NNW,344,2.0,3.0,44,0.00,,,0.00,Wunderground v.1.15,2015-08-01 09:16:00,
2015-08-01 03:22:00,65.5,43.6,29.98,NNW,333,1.0,3.0,45,0.00,,,0.00,Wunderground v.1.15,2015-08-01 09:22:00,
2015-08-01 03:28:00,65.5,43.0,29.98,NNW,329,2.0,4.0,44,0.00,,,0.00,Wunderground v.1.15,2015-08-01 09:28:00,
2015-08-01 03:34:00,63.8,42.0,29.98,West,263,2.0,6.0,45,0.00,,,0.00,Wunderground v.1.15,2015-08-01 09:34:00,
2015-08-01 03:40:00,62.2,41.7,29.98,WSW,257,3.0,3.0,47,0.00,,,0.00,Wunderground v.1.15,2015-08-01 09:40:00,
2015-08-01 03:46:00,60.7,41.9,29.98,West,259,2.0,4.0,50,0.00,,,0.00,Wunderground v.1.15,2015-08-01 09:46:00,
2015-08-01 03:52:00,59.5,39.8,29.98,West,260,3.0,3.0,48,0.00,,,0.00,Wunderground v.1.15,2015-08-01 09:52:00,
2015-08-01 03:57:00,58.7,39.6,29.98,West,269,3.0,4.0,49,0.00,,,0.00,Wunderground v.1.15,2015-08-01 09:57:00,
2015-08-01 04:03:00,58.7,39.6,29.98,WNW,298,2.0,3.0,49,0.00,,,0.00,Wunderground v.1.15,2015-08-01 10:03:00,
2015-08-01 04:09:00,59.1,39.9,29.98,NW,318,2.0,3.0,49,0.00,,,0.00,Wunderground v.1.15,2015-08-01 10:09:00,
2015-08-01 04:15:00,59.4,40.2,29.98,NW,315,2.0,3.0,49,0.00,,,0.00,Wunderground v.1.15,2015-08-01 10:15:00,
2015-08-01 04:21:00,59.7,39.4,29.98,NW,316,2.0,3.0,47,0.00,,,0.00,Wunderground v.1.15,2015-08-01 10:21:00,
2015-08-01 04:27:00,59.9,40.1,29.98,NW,323,3.0,4.0,48,0.00,,,0.00,Wunderground v.1.15,2015-08-01 10:27:00,
2015-08-01 04:33:00,59.9,39.6,29.98,NW,313,2.0,3.0,47,0.00,,,0.00,Wunderground v.1.15,2015-08-01 10:33:00,
2015-08-01 04:38:00,59.8,39.5,29.98,NNW,334,2.0,3.0,47,0.00,,,0.00,Wunderground v.1.15,2015-08-01 10:38:00,
2015-08-01 04:44:00,59.8,39.5,29.98,NW,316,2.0,2.0,47,0.00,,,0.00,Wunderground v.1.15,2015-08-01 10:44:00,
2015-08-01 04:50:00,60.0,39.1,29.98,NW,317,2.0,2.0,46,0.00,,,0.00,Wunderground v.1.15,2015-08-01 10:50:00,
2015-08-01 04:56:00,59.9,39.1,29.98,WSW,246,2.0,3.0,46,0.00,,,0.00,Wunderground v.1.15,2015-08-01 10:56:00,
2015-08-01 05:02:00,58.0,38.9,29.98,WSW,246,2.0,2.0,49,0.00,,,0.00,Wunderground v.1.15,2015-08-01 11:02:00,
2015-08-01 05:08:00,57.3,39.3,29.98,WSW,246,1.0,2.0,51,0.00,,,0.00,Wunderground v.1.15,2015-08-01 11:08:00,
2015-08-01 05:13:00,57.1,39.6,29.98,WSW,246,1.0,2.0,52,0.00,,,0.00,Wunderground v.1.15,2015-08-01 11:13:00,
2015-08-01 05:19:00,56.9,39.4,29.98,WSW,246,0.0,2.0,52,0.00,,,0.00,Wunderground v.1.15,2015-08-01 11:19:00,
2015-08-01 05:25:00,57.2,39.7,29.98,West,268,1.0,4.0,52,0.00,,,0.00,Wunderground v.1.15,2015-08-01 11:25:00,
2015-08-01 05:31:00,56.2,39.3,29.98,West,260,2.0,2.0,53,0.00,,,0.00,Wunderground v.1.15,2015-08-01 11:31:00,
2015-08-01 05:37:00,56.0,39.6,29.98,West,260,0.0,2.0,54,0.00,,,0.00,Wunderground v.1.15,2015-08-01 11:37:00,
2015-08-01 05:43:00,56.3,39.9,29.98,West,271,1.0,2.0,54,0.00,,,0.00,Wunderground v.1.15,2015-08-01 11:43:00,
2015-08-01 05:48:00,56.7,39.7,29.98,WNW,299,2.0,2.0,53,0.00,,,0.00,Wunderground v.1.15,2015-08-01 11:48:00,
2015-08-01 05:53:00,56.9,39.9,29.98,NW,306,2.0,2.0,53,0.00,,,0.00,Wunderground v.1.15,2015-08-01 11:53:00,
2015-08-01 05:59:00,56.9,39.9,29.98,NW,306,1.0,2.0,53,0.00,,,0.00,Wunderground v.1.15,2015-08-01 11:59:00,
2015-08-01 06:05:00,56.9,40.4,29.99,NW,306,0.0,1.0,54,0.00,,,0.00,Wunderground v.1.15,2015-08-01 12:05:00,
2015-08-01 06:11:00,56.9,40.4,29.99,NW,306,0.0,0.0,54,0.00,,,0.00,Wunderground v.1.15,2015-08-01 12:11:00,
2015-08-01 06:16:00,56.9,40.4,29.99,NW,306,0.0,0.0,54,0.00,,,0.00,Wunderground v.1.15,2015-08-01 12:16:00,
2015-08-01 06:22:00,56.9,40.9,29.99,NW,306,0.0,0.0,55,0.00,,,0.00,Wunderground v.1.15,2015-08-01 12:22:00,
2015-08-01 06:28:00,56.6,41.1,29.99,NW,304,0.0,0.0,56,0.00,,,0.00,Wunderground v.1.15,2015-08-01 12:28:00,
2015-08-01 06:34:00,56.4,40.9,29.99,NW,304,0.0,0.0,56,0.00,,,0.00,Wunderground v.1.15,2015-08-01 12:34:00,
2015-08-01 06:40:00,56.6,41.1,30.00,West,281,0.0,0.0,56,0.00,,,0.00,Wunderground v.1.15,2015-08-01 12:40:00,
2015-08-01 06:46:00,57.1,41.1,30.00,West,277,0.0,2.0,55,0.00,,,0.00,Wunderground v.1.15,2015-08-01 12:46:00,
2015-08-01 06:51:00,57.8,41.3,30.00,West,275,1.0,3.0,54,0.00,,,0.00,Wunderground v.1.15,2015-08-01 12:51:00,
2015-08-01 06:57:00,58.5,41.9,30.00,West,281,2.0,3.0,54,0.00,,,0.00,Wunderground v.1.15,2015-08-01 12:57:00,
2015-08-01 07:03:00,59.3,41.7,30.00,NW,315,2.0,3.0,52,0.00,,,0.00,Wunderground v.1.15,2015-08-01 13:03:00,
2015-08-01 07:09:00,59.9,40.7,30.00,West,268,2.0,7.0,49,0.00,,,0.00,Wunderground v.1.15,2015-08-01 13:09:00,
2015-08-01 07:15:00,60.5,40.7,30.00,West,273,3.0,4.0,48,0.00,,,0.00,Wunderground v.1.15,2015-08-01 13:15:00,
2015-08-01 07:21:00,60.8,41.0,30.00,West,263,3.0,3.0,48,0.00,,,0.00,Wunderground v.1.15,2015-08-01 13:21:00,
2015-08-01 07:27:00,61.3,40.9,30.00,West,269,3.0,3.0,47,0.00,,,0.00,Wunderground v.1.15,2015-08-01 13:27:00,
2015-08-01 07:32:00,61.8,41.3,30.00,West,275,3.0,3.0,47,0.00,,,0.00,Wunderground v.1.15,2015-08-01 13:32:00,
2015-08-01 07:38:00,62.4,41.9,30.00,West,261,3.0,3.0,47,0.00,,,0.00,Wunderground v.1.15,2015-08-01 13:38:00,
2015-08-01 07:44:00,63.4,42.2,30.00,West,276,3.0,4.0,46,0.00,,,0.00,Wunderground v.1.15,2015-08-01 13:44:00,
2015-08-01 07:50:00,64.1,42.9,30.00,West,269,3.0,3.0,46,0.00,,,0.00,Wunderground v.1.15,2015-08-01 13:50:00,
2015-08-01 07:56:00,64.8,42.9,30.00,West,272,2.0,3.0,45,0.00,,,0.00,Wunderground v.1.15,2015-08-01 13:56:00,
2015-08-01 08:02:00,65.7,44.3,30.00,West,271,2.0,2.0,46,0.00,,,0.00,Wunderground v.1.15,2015-08-01 14:02:00,
2015-08-01 08:08:00,66.7,44.7,30.00,West,277,2.0,4.0,45,0.00,,,0.00,Wunderground v.1.15,2015-08-01 14:08:00,
2015-08-01 08:14:00,67.6,43.7,30.00,WNW,282,3.0,6.0,42,0.00,,,0.00,Wunderground v.1.15,2015-08-01 14:14:00,
2015-08-01 08:20:00,68.6,43.9,30.00,West,269,3.0,3.0,41,0.00,,,0.00,Wunderground v.1.15,2015-08-01 14:20:00,
2015-08-01 08:25:00,69.6,43.5,30.00,West,260,3.0,6.0,39,0.00,,,0.00,Wunderground v.1.15,2015-08-01 14:25:00,
2015-08-01 08:31:00,70.6,44.4,30.00,West,265,3.0,3.0,39,0.00,,,0.00,Wunderground v.1.15,2015-08-01 14:31:00,
2015-08-01 08:37:00,71.2,44.3,29.99,West,259,3.0,6.0,38,0.00,,,0.00,Wunderground v.1.15,2015-08-01 14:37:00,
2015-08-01 08:42:00,71.6,44.6,29.99,WNW,286,3.0,6.0,38,0.00,,,0.00,Wunderground v.1.15,2015-08-01 14:42:00,
2015-08-01 08:47:00,72.0,45.7,29.99,WSW,254,4.0,7.0,39,0.00,,,0.00,Wunderground v.1.15,2015-08-01 14:47:00,
2015-08-01 08:53:00,72.6,45.5,29.99,West,274,4.0,4.0,38,0.00,,,0.00,Wunderground v.1.15,2015-08-01 14:53:00,
2015-08-01 08:59:00,73.2,45.4,29.99,West,265,3.0,4.0,37,0.00,,,0.00,Wunderground v.1.15,2015-08-01 14:59:00,
2015-08-01 09:05:00,74.0,46.1,29.99,West,270,3.0,7.0,37,0.00,,,0.00,Wunderground v.1.15,2015-08-01 15:05:00,
2015-08-01 09:11:00,74.9,46.1,29.99,West,278,3.0,3.0,36,0.00,,,0.00,Wunderground v.1.15,2015-08-01 15:11:00,
2015-08-01 09:17:00,75.8,43.8,29.99,WNW,301,2.0,5.0,32,0.00,,,0.00,Wunderground v.1.15,2015-08-01 15:17:00,
2015-08-01 09:22:00,76.1,45.7,29.99,West,269,3.0,3.0,34,0.00,,,0.00,Wunderground v.1.15,2015-08-01 15:22:00,
2015-08-01 09:28:00,76.8,45.5,29.99,WSW,254,2.0,3.0,33,0.00,,,0.00,Wunderground v.1.15,2015-08-01 15:28:00,
2015-08-01 09:34:00,77.5,44.5,29.99,West,275,2.0,3.0,31,0.00,,,0.00,Wunderground v.1.15,2015-08-01 15:34:00,
2015-08-01 09:40:00,77.7,47.1,29.98,WSW,257,2.0,2.0,34,0.00,,,0.00,Wunderground v.1.15,2015-08-01 15:40:00,
2015-08-01 09:45:00,78.2,44.2,29.98,NE,38,2.0,4.0,30,0.00,,,0.00,Wunderground v.1.15,2015-08-01 15:45:00,
2015-08-01 09:51:00,78.8,46.4,29.98,NW,324,2.0,2.0,32,0.00,,,0.00,Wunderground v.1.15,2015-08-01 15:51:00,
2015-08-01 09:56:00,79.2,44.2,29.98,NNW,346,1.0,2.0,29,0.00,,,0.00,Wunderground v.1.15,2015-08-01 15:56:00,
2015-08-01 10:02:00,79.6,43.6,29.98,WNW,292,2.0,2.0,28,0.00,,,0.00,Wunderground v.1.15,2015-08-01 16:02:00,
2015-08-01 10:08:00,80.0,44.0,29.98,West,273,3.0,6.0,28,0.00,,,0.00,Wunderground v.1.15,2015-08-01 16:08:00,
2015-08-01 10:14:00,80.1,44.0,29.98,WNW,282,3.0,6.0,28,0.00,,,0.00,Wunderground v.1.15,2015-08-01 16:14:00,
2015-08-01 10:19:00,80.5,45.3,29.98,WNW,294,3.0,6.0,29,0.00,,,0.00,Wunderground v.1.15,2015-08-01 16:19:00,
2015-08-01 10:25:00,81.0,43.9,29.97,West,271,2.0,3.0,27,0.00,,,0.00,Wunderground v.1.15,2015-08-01 16:25:00,